Location: Krakow
(50.0830°N, 19.9170°E)
Time: 07:27:30
(UTC+02:00)

A-11 Canister half - Pass Details

Date: 15 March 2026
Orbit: 1523 x 1684 km, 47.3° (Epoch: 18 April)

Event Time Altitude Azimuth Distance (km) Brightness Sun altitude
Rises 09:00:31 0° 219° (SW) 4,886 11.7 26.6°
Reaches altitude 10° 09:03:52 10° 214° (SSW) 3,882 11.3 27.0°
Maximum altitude 09:13:00 44° 146° (SSE) 2,108 11.5 28.0°
Drops below altitude 10° 09:21:51 10° 79° (E) 3,774 11.6 29.0°
Sets 09:25:03 0° 73° (ENE) 4,740 11.9 29.4°
